Orbital Elements at Epoch 2459000.5 (2020-May-31.0) TDB
Reference: JPL 20 (heliocentric ecliptic J2000)
Element | Value | Uncertainty (1-sigma) | Units |
e | .1175161851196755 | 6.1955e-08 | |
a | 3.180759336663929 | 2.7509e-08 | au |
q | 2.806968633635395 | 2.0515e-07 | au |
i | 10.75803402617678 | 6.9213e-06 | deg |
node | 359.2706376619052 | 2.2788e-05 | deg |
peri | 153.1734844346782 | 3.3367e-05 | deg |
M | 291.116496289898 | 2.2321e-05 | deg |
tp | 2459396.967298153781 (2021-Jul-01.46729815) | 0.00012879 | TDB |
period | 2072.023338650664 5.67 | 2.688e-05 7.359e-08 | d yr |
n | .1737432167315441 | 2.254e-09 | deg/d |
Q | 3.554550039692464 | 3.0742e-08 | au |
|
| | Orbit Determination Parameters
Additional Information
|